DRAGON CRS-18 DEB

Last updated on Sun Aug 04 2019 00:02:09 GMT+0000 (Coordinated Universal Time)

1 44448U 19044C 19214.94551617 .16700188 12453-4 45140-3 0 9994 2 44448 51.6395 126.1250 0018701 98.8567 318.3032 16.43675190 1296

Satellite not in orbit